Location: Morisset
(33.1080°S, 151.4871°E)
Time: 12:51:53
(UTC+00:00)

FALCON 9 DEB - Pass Details

Date: 29 October 2020
Orbit: 383 x 397 km, 53.0° (Epoch: 23 November)

Event Time Altitude Azimuth Distance (km) Brightness Sun altitude
Exits shadow 17:08:37 34° 57° (ENE) 666 4.2 -21.3°
Drops below altitude 10° 17:11:26 10° 118° (ESE) 1,435 6.9 -20.8°
Sets 17:13:36 0° 127° (SE) 2,292 8.4 -20.4°
